Weather History for Novato, CA

Change the Weather History Date:

Saturday, November 3, 2012

  Actual Average (KAPC) Record (KAPC)
Temperature  
Mean Temperature 60 °F 55 °F  
Max Temperature 73 °F 69 °F 81 °F (2010)
Min Temperature 46 °F 41 °F 33 °F (2011)
Degree Days  
Heating Degree Days 6    
Month to date heating degree days  
Since 1 July heating degree days  
Cooling Degree Days 0    
Month to date cooling degree days  
Year to date cooling degree days  
Growing Degree Days 10 (Base 50)    
Moisture  
Dew Point 52 °F    
Average Humidity 83    
Maximum Humidity 100    
Minimum Humidity 50    
Precipitation  
Precipitation 0.00 in - 1.32 in (1979)
Month to date precipitation  
Year to date precipitation  
Since 1 July precipitation  
Sea Level Pressure  
Sea Level Pressure 30.12 in    
Wind  
Wind Speed 1 mph (East)    
Max Wind Speed 8 mph    
Max Gust Speed -    
Visibility 10 miles    
Events      
T = Trace of Precipitation, MM = Missing Value Source: NWS Daily Summary

Daily Weather History Graph

Daily Weather History Graph

Search for Another Location

Airport:

Trip Planner

Search our weather history database for the weather conditions in past years. The results will help you decide how hot, cold, wet, or windy it might be!

Date:

Astronomy

Nov. 03, 2012 Rise Set
Actual Time 7:38 AM PDT 6:08 PM PDT
Civil Twilight 7:11 AM PDT 6:35 PM PDT
Nautical Twilight 6:40 AM PDT 7:06 PM PDT
Astronomical Twilight 6:09 AM PDT 7:37 PM PDT
Moon 9:55 PM PDT (11/3) 11:45 AM PDT (11/3)
Length of Visible Light 11h 24m
Length of Day
10h 29m
Waning Gibbous, 79% of the Moon is Illuminated
Nov 3
Waning Gibbous
Nov 6
Last Quarter
Nov 13
New
Nov 20
First Quarter
Nov 28
Full

Hourly Weather History & Observations

Time (PDT) Temp. Windchill Dew Point Humidity Pressure Visibility Wind Dir Wind Speed Gust Speed Precip Events Conditions
12:15 AM 50.0 °F - 50.0 °F 100% 30.08 in 10.0 mi Calm Calm - N/A   Clear
12:35 AM 50.0 °F - 50.0 °F 100% 30.08 in 10.0 mi Calm Calm - N/A   Clear
12:55 AM 50.0 °F - 50.0 °F 100% 30.08 in 10.0 mi Calm Calm - N/A   Clear
1:15 AM 50.0 °F - 50.0 °F 100% 30.09 in 10.0 mi Calm Calm - N/A   Clear
1:35 AM 48.2 °F - 48.2 °F 100% 30.09 in 10.0 mi Calm Calm - N/A   Clear
1:55 AM 46.4 °F 44.3 °F 46.4 °F 100% 30.09 in 10.0 mi NNE 4.6 mph - N/A   Clear
2:15 AM 48.2 °F - 48.2 °F 100% 30.09 in 10.0 mi Calm Calm - N/A   Clear
2:35 AM 48.2 °F - 48.2 °F 100% 30.10 in 10.0 mi Calm Calm - N/A   Clear
2:55 AM 48.2 °F - 48.2 °F 100% 30.10 in 10.0 mi Calm Calm - N/A   Clear
3:15 AM 46.4 °F - 46.4 °F 100% 30.10 in 10.0 mi Calm Calm - N/A   Mostly Cloudy
3:35 AM 48.2 °F - 48.2 °F 100% 30.10 in 10.0 mi Calm Calm - N/A   Mostly Cloudy
3:55 AM 48.2 °F - 48.2 °F 100% 30.10 in 10.0 mi Calm Calm - N/A   Scattered Clouds
4:15 AM 48.2 °F - 48.2 °F 100% 30.10 in 10.0 mi Calm Calm - N/A   Overcast
4:35 AM 48.2 °F - 48.2 °F 100% 30.10 in 10.0 mi Calm Calm - N/A   Overcast
4:55 AM 48.2 °F - 48.2 °F 100% 30.11 in 10.0 mi Calm Calm - N/A   Overcast
5:15 AM 50.0 °F - 50.0 °F 100% 30.12 in 10.0 mi Calm Calm - N/A   Overcast
5:35 AM 50.0 °F - 50.0 °F 100% 30.11 in 10.0 mi Calm Calm - N/A   Mostly Cloudy
5:55 AM 48.2 °F - 48.2 °F 100% 30.12 in 10.0 mi Calm Calm - N/A   Mostly Cloudy
6:15 AM 48.2 °F - 48.2 °F 100% 30.12 in 10.0 mi Calm Calm - N/A   Overcast
6:35 AM 48.2 °F - 48.2 °F 100% 30.12 in 10.0 mi Calm Calm - N/A   Mostly Cloudy
6:55 AM 48.2 °F - 48.2 °F 100% 30.12 in 10.0 mi Calm Calm - N/A   Mostly Cloudy
7:15 AM 48.2 °F - 48.2 °F 100% 30.13 in 10.0 mi Calm Calm - N/A   Overcast
7:35 AM 50.0 °F - 50.0 °F 100% 30.13 in 10.0 mi Calm Calm - N/A   Overcast
7:55 AM 50.0 °F - 50.0 °F 100% 30.13 in 10.0 mi Calm Calm - N/A   Overcast
8:15 AM 48.2 °F - 48.2 °F 100% 30.13 in 9.0 mi Calm Calm - N/A   Overcast
8:35 AM 50.0 °F - 50.0 °F 100% 30.15 in 10.0 mi Calm Calm - N/A   Scattered Clouds
8:55 AM 50.0 °F - 50.0 °F 100% 30.15 in 10.0 mi Calm Calm - N/A   Clear
9:15 AM 53.6 °F - 53.6 °F 100% 30.16 in 10.0 mi Calm Calm - N/A   Clear
9:35 AM 53.6 °F - 53.6 °F 100% 30.16 in 10.0 mi Calm Calm - N/A   Clear
9:55 AM 55.4 °F - 55.4 °F 100% 30.16 in 10.0 mi Calm Calm - N/A   Clear
10:15 AM 57.2 °F - 55.4 °F 94% 30.16 in 10.0 mi Calm Calm - N/A   Clear
10:35 AM 59.0 °F - 53.6 °F 82% 30.16 in 10.0 mi Calm Calm - N/A   Clear
10:55 AM 62.6 °F - 53.6 °F 72% 30.16 in 10.0 mi Calm Calm - N/A   Clear
11:15 AM 64.4 °F - 53.6 °F 68% 30.16 in 10.0 mi Calm Calm - N/A   Clear
11:35 AM 64.4 °F - 53.6 °F 68% 30.16 in 10.0 mi South 3.5 mph - N/A   Clear
11:55 AM 66.2 °F - 53.6 °F 64% 30.15 in 10.0 mi SE 4.6 mph - N/A   Clear
12:15 PM 68.0 °F - 53.6 °F 60% 30.14 in 10.0 mi SE 5.8 mph - N/A   Clear
12:35 PM 68.0 °F - 53.6 °F 60% 30.13 in 10.0 mi ESE 5.8 mph - N/A   Clear
12:55 PM 68.0 °F - 53.6 °F 60% 30.13 in 10.0 mi ESE 4.6 mph - N/A   Clear
1:15 PM 68.0 °F - 55.4 °F 64% 30.12 in 10.0 mi Calm Calm - N/A   Clear
1:35 PM 71.6 °F - 53.6 °F 53% 30.11 in 10.0 mi SE 3.5 mph - N/A   Clear
1:55 PM 71.6 °F - 53.6 °F 53% 30.11 in 10.0 mi South 3.5 mph - N/A   Clear
2:15 PM 71.6 °F - 53.6 °F 53% 30.11 in 10.0 mi SE 3.5 mph - N/A   Clear
2:35 PM 73.4 °F - 53.6 °F 50% 30.11 in 10.0 mi ESE 4.6 mph - N/A   Clear
2:55 PM 73.4 °F - 53.6 °F 50% 30.10 in 10.0 mi ESE 3.5 mph - N/A   Clear
3:15 PM 71.6 °F - 53.6 °F 53% 30.10 in 10.0 mi SE 4.6 mph - N/A   Clear
3:35 PM 73.4 °F - 53.6 °F 50% 30.09 in 10.0 mi ESE 4.6 mph - N/A   Clear
3:55 PM 73.4 °F - 53.6 °F 50% 30.09 in 5.0 mi SE 4.6 mph - N/A   Haze
4:15 PM 73.4 °F - 53.6 °F 50% 30.09 in 5.0 mi SE 3.5 mph - N/A   Haze
4:35 PM 71.6 °F - 53.6 °F 53% 30.10 in 5.0 mi SE 5.8 mph - N/A   Haze
4:55 PM 71.6 °F - 53.6 °F 53% 30.10 in 5.0 mi SE 4.6 mph - N/A   Haze
5:15 PM 73.4 °F - 53.6 °F 50% 30.10 in 10.0 mi WNW 3.5 mph - N/A   Clear
5:35 PM 71.6 °F - 53.6 °F 53% 30.10 in 10.0 mi Calm Calm - N/A   Clear
5:55 PM 68.0 °F - 55.4 °F 64% 30.11 in 10.0 mi Calm Calm - N/A   Clear
6:15 PM 64.4 °F - 51.8 °F 64% 30.11 in 10.0 mi North 8.1 mph - N/A   Clear
6:35 PM 62.6 °F - 51.8 °F 68% 30.11 in 10.0 mi North 5.8 mph - N/A   Clear
6:55 PM 62.6 °F - 53.6 °F 72% 30.12 in 10.0 mi North 3.5 mph - N/A   Clear
7:15 PM 60.8 °F - 50.0 °F 68% 30.12 in 10.0 mi NNW 5.8 mph - N/A   Clear
7:35 PM 62.6 °F - 51.8 °F 68% 30.13 in 10.0 mi Calm Calm - N/A   Clear
7:55 PM 59.0 °F - 53.6 °F 82% 30.13 in 10.0 mi Calm Calm - N/A   Clear
8:15 PM 57.2 °F - 53.6 °F 88% 30.13 in 10.0 mi Calm Calm - N/A   Clear
8:35 PM 57.2 °F - 53.6 °F 88% 30.13 in 10.0 mi NE 3.5 mph - N/A   Clear
8:55 PM 57.2 °F - 53.6 °F 88% 30.13 in 10.0 mi NNE 4.6 mph - N/A   Clear
9:15 PM 55.4 °F - 53.6 °F 94% 30.13 in 10.0 mi Calm Calm - N/A   Clear
9:35 PM 57.2 °F - 53.6 °F 88% 30.14 in 10.0 mi Calm Calm - N/A   Clear
9:55 PM 53.6 °F - 53.6 °F 100% 30.14 in 10.0 mi NNW 3.5 mph - N/A   Clear
10:15 PM 55.4 °F - 53.6 °F 94% 30.15 in 10.0 mi North 3.5 mph - N/A   Clear
10:35 PM 55.4 °F - 53.6 °F 94% 30.15 in 10.0 mi Calm Calm - N/A   Clear
10:55 PM 55.4 °F - 53.6 °F 94% 30.15 in 10.0 mi Calm Calm - N/A   Clear
11:15 PM 55.4 °F - 55.4 °F 100% 30.15 in 10.0 mi Calm Calm - N/A   Clear
11:35 PM 53.6 °F - 53.6 °F 100% 30.16 in 10.0 mi Calm Calm - N/A   Clear
11:55 PM 55.4 °F - 55.4 °F 100% 30.16 in 10.0 mi Calm Calm - N/A   Clear